Probability
0 0 0 0 0 0 0 0 0 0 0 0 0 0 0 0 0 0 0 0 0 0 0 0 0 0 0 0 0 0 0 0 0 0 0 0 0 0 0 0 0 0 0
0 0 0 0 0 0 0 0 0 0 0 0 0 0 0 0 0 0 0 0 0 0 0 0 0 0 0 0 0 0 0 0 0 0 0 0 0 0 0 0 0 0 0
0 0 0 0 0 0 0 0 0 0 0 0 0 0 0 0 0 0 0 0 0 0 0 0 0 0 0 0 0 0 0 0 0 0 0 0 0 0 0 0 0 0 0
0 0 0 0 0 0 0 0 0 0 0 0 0 0 0 0 0 0 0 0 0 0 0 0 0 0 0 0 0 0 0 0 0 0 0 0 0 0 0 0 0 0 0
0 0 0 0 0 0 0 0 0 0 0 0 0 0 0 0 0 0 0 0 0 0 0 0 0 0 0 0 0 0 0 0 0 0 0 0 0 0 0 0 0 0 0
0 0 0 0 0 0 0 0 0 0 0 0 0 0 0 0 0 0 0 0 0 0 0 0 0 0 0 0 0 0 0 0 0 0 0 0 0 0 0 0 0 0 0
0 0 0 0 0 0 0 0 0 0 0 0 0 0 0 0 0 0 0 0 0 0 0 0 0 0 0 0 0 0 0 0 0 0 0 0 0 0 0 0 0 0 0
0 0 0 0 0 0 0 0 0 0 0 0 0 0 0 0 0 0 0 0 0 0 0 0 0 0 0 0 0 0 0 0 0 0 0 0 0 0 0 0 0 0 0
0 0 0 0 0 0 0 0 0 0 0 0 0 0 0 0 0 0 0 0 0 0 0 0 0 0 0 0 0 0 0 0 0 0 0 0 0 0 0 0 0 0 0
0 0 0 0 0 0 0 0 0 0 0 0 0 0 0 0 0 0 0 0 0 0 0 0 0 0 0 0 0 0 0 0 0 0 0 0 0 0 0 0 0 0 0
0 0 0 0 0 0 0 0 0 0 0 0 0 0 0 0 0 0 0 0 0 0 0 0 0 0 0 0 0 0 0 0 0 0 0 0 0 0 0 0 0 0 0
0 0 0 0 0 0 0 0 0 0 0 0 0 0 0 0 0 0 0 0 0 0 0 0 0 0 0 0 0 0 0 0 0 0 0 0 0 0 0 0 0 0 0
0 0 0 0 0 0 0 0 0 0 0 0 0 0 0 0 0 0 0 0 0 0 0 0 0 0 0 0 0 0 0 0 0 0 0 0 0 0 0 0 0 0 0
0 0 0 0 0 0 0 0 0 0 0 0 0 0 0 0 0 0 0 0 0 0 0 0 0 0 0 0 0 0 0 0 0 0 0 0 0 0 0 0 0 0 0
0 0 0 0 0 0 0 0 0 0 0 0 0 0 0 0 0 0 0 0 0 0 0 0 0 0 0 0 0 0 0 0 0 0 0 0 0 0 0 0 0 0 0
0 0 0 0 0 0 0 0 0 0 0 0 0 0 0 0 0 0 0 0 0 0 0 0 0 0 0 0 0 0 0 0 0 0 0 0 0 0 0 0 0 0 0
0 0 0 0 0 0 0 0 0 0 0 0 0 0 0 0 0 0 0 0 0 0 0 0 0 0 0 0 0 0 0 0 0 0 0 0 0 0 0 0 0 0 0
0 0 0 0 0 0 0 0 0 0 0 0 0 0 0 0 0 0 0 0 0 0 0 0 0 0 0 0 0 0 0 0 0 0 0 0 0 0 0 0 0 0 0
0 0 0 0 0 0 0 0 0 0 0 0 0 0 0 0 0 0 0 0 0 0 0 0 0 0 0 0 0 0 0 0 0 0 0 0 0 0 0 0 0 0 0
0 0 0 0 0 0 0 0 0 0 0 0 0 0 0 0 0 0 0 0 0 0 0 0 0 0 0 0 0 0 0 0 0 0 0 0 0 0 0 0 0 0 0
0 0 0 0 0 0 0 0 0 0 0 0 0 0 0 0 0 0 0 0 0 0 0 0 0 0 0 0 0 0 0 0 0 0 0 0 0 0 0 0 0 0 0
0 0 0 0 0 0 0 0 0 0 0 0 0 0 0 0 0 0 0 0 0 0 0 0 0 0 0 0 0 0 0 0 0 0 0 0 0 0 0 0 0 0 0
0 0 0 0 0 0 0 0 0 0 0 0 0 0 0 0 0 0 0 0 0 0 0 0 0 0 0 0 0 0 0 0 0 0 0 0 0 0 0 0 0 0 0
0 0 0 0 0 0 0 0 0 0 0 0 0 0 0 0 0 0 0 0 0 0 0 0 0 0 0 0 0 0 0 0 0 0 0 0 0 0 0 0 0 0 0
0 0 0 0 0 0 0 0 0 0 0 0 0 0 0 0 0 0 0 0 0 0 0 0 0 0 0 0 0 0 0 0 0 0 0 0 0 0 0 0 0 0 0
0 0 0 0 0 0 0 0 0 0 0 0 0 0 0 0 0 0 0 0 0 0 0 0 0 0 0 0 0 0 0 0 0 0 0 0 0 0 0 0 0 0 0
Wind_Speed
2 2 2 2 2 2 1 1 1 1 1 1 1 2 2 2 3 3 3 3 3 3 2 3 3 2 2 2 1 1 2 2 4 3 2 1 1 2 2 2 2 2 3
2 2 2 2 2 2 2 2 2 1 1 1 1 1 1 1 2 3 4 4 4 4 3 3 3 2 2 2 2 2 2 3 3 5 3 2 2 2 2 2 2 2 3
2 2 2 2 2 2 2 2 2 1 1 1 1 1 1 1 2 2 3 4 4 4 4 4 4 3 3 2 2 3 2 2 2 3 3 2 2 1 2 2 3 3 3
2 2 2 2 2 2 2 2 2 1 1 1 1 2 1 1 1 1 1 2 3 3 3 3 3 4 4 3 3 3 2 2 2 2 3 2 2 2 1 2 3 2 3
2 2 2 2 2 2 2 2 2 2 2 2 2 2 2 1 1 1 1 2 2 2 2 2 2 3 3 3 3 3 2 2 2 2 3 2 2 2 2 2 3 3 3
2 2 2 2 2 2 2 2 2 2 2 2 2 2 2 2 4 3 1 1 1 1 1 1 1 1 2 3 3 3 4 4 4 4 3 4 4 3 2 2 2 3 3
2 2 2 2 2 2 2 2 2 2 2 2 2 2 2 3 5 4 3 1 0 1 1 1 1 1 1 1 2 2 3 4 5 5 5 5 4 4 3 3 3 4 4
2 2 2 2 2 2 2 2 2 2 1 1 2 2 2 3 5 4 4 2 1 1 0 1 1 1 1 1 1 2 2 3 4 3 4 4 4 3 3 3 4 3 3
2 2 2 2 2 2 2 2 2 1 1 1 1 2 2 4 5 5 5 2 2 2 2 1 1 2 3 2 1 2 3 3 4 5 5 4 5 4 2 1 1 1 3
2 2 2 2 1 1 2 2 2 2 1 1 2 2 2 3 5 5 5 2 2 2 2 2 2 3 3 2 1 2 3 4 3 3 3 4 3 3 2 2 2 2 2
3 2 2 2 2 1 2 2 2 2 2 2 2 2 2 3 4 5 5 2 2 2 2 2 3 5 5 4 3 3 4 3 2 2 2 2 2 2 2 2 1 2 3
2 2 2 2 2 1 1 2 1 1 1 1 2 2 2 3 3 5 6 5 3 2 2 2 3 6 6 6 4 4 4 3 1 1 2 2 2 2 2 2 3 3 3
2 2 2 2 2 2 1 1 1 1 1 1 1 2 2 2 3 5 6 6 6 3 2 4 6 7 6 4 5 5 3 1 1 2 3 3 2 2 2 2 2 2 2
2 2 2 1 2 2 1 1 0 1 1 1 1 2 2 2 3 3 2 3 4 4 3 3 5 5 4 4 3 3 2 1 2 2 3 2 2 1 2 2 2 2 2
2 2 2 1 1 1 1 1 2 2 2 2 2 2 2 2 4 6 4 3 2 2 2 2 1 2 2 2 2 2 2 2 2 2 2 2 2 2 2 2 1 1 2
1 2 1 1 1 1 1 2 4 4 5 5 4 3 3 5 7 7 6 5 5 3 1 1 1 2 2 2 3 3 3 3 3 2 2 3 3 3 3 2 2 2 3
2 2 1 1 1 1 1 1 2 4 5 4 4 5 5 5 6 6 6 5 4 3 1 1 2 2 3 3 3 3 3 3 3 3 3 3 3 3 3 3 3 3 3
2 2 2 2 2 2 2 2 2 2 3 3 4 5 6 6 6 5 5 3 2 2 1 2 2 3 3 3 4 4 4 3 3 3 3 3 3 3 3 3 3 3 3
2 2 2 2 2 2 2 2 2 2 2 3 3 4 4 5 5 5 4 1 1 2 2 2 2 3 3 3 3 4 4 4 4 3 3 3 3 3 4 4 4 4 4
2 3 3 2 2 2 2 2 2 2 2 3 3 3 2 2 2 3 2 1 2 3 3 3 3 3 3 4 4 3 4 4 4 4 4 4 3 4 4 5 4 4 4
2 2 3 2 2 2 2 2 3 3 3 3 4 4 4 2 2 3 3 3 3 3 4 4 3 4 4 4 4 4 5 5 4 4 4 4 4 4 4 4 4 4 4
2 2 2 2 2 3 3 3 3 3 3 4 4 4 6 3 3 3 3 4 3 3 4 4 4 4 4 4 4 4 5 5 5 4 4 4 4 4 4 4 4 4 4
2 3 3 3 3 3 3 3 3 3 4 4 4 3 3 3 4 4 4 4 4 4 3 3 4 5 4 4 4 5 6 6 5 5 5 5 4 4 4 5 5 5 5
3 3 3 3 3 3 3 4 3 4 4 4 4 4 4 4 4 5 5 4 4 4 4 4 5 6 8 6 5 5 6 6 6 5 6 6 6 5 4 5 5 5 5
3 3 4 4 4 4 4 4 4 4 4 4 4 5 5 5 5 5 5 4 5 5 6 5 5 6 8 9 8 7 9 11 9 6 5 5 6 6 5 5 5 5 5
4 4 4 4 4 4 4 5 5 5 5 5 5 5 5 5 5 5 5 5 5 5 6 6 7 8 9 8 10 11 11 12 10 9 6 5 6 6 5 5 6 5 6
Wind_Direction
25 28 30 20 20 27 24 2 350 347 344 316 278 250 233 216 207 198 199 190 196 203 199 198 217 215 213 220 220 227 241 234 251 275 266 268 257 269 290 280 278 273 281
9 25 24 14 19 21 8 354 356 356 343 330 319 301 281 250 220 205 204 198 197 200 203 201 219 217 225 224 222 231 240 240 239 265 278 279 271 283 294 290 296 294 285
9 20 17 14 13 1 357 351 351 351 350 356 350 313 301 285 247 220 213 205 203 206 205 205 216 209 227 236 233 235 240 246 244 249 271 287 294 318 313 305 301 294 294
7 13 3 346 335 333 347 347 348 351 339 342 354 336 312 319 311 247 213 212 206 209 208 209 214 213 220 226 232 238 238 243 242 245 263 280 286 302 297 289 298 294 291
5 359 335 330 337 350 351 349 356 358 345 347 0 351 345 341 340 335 247 213 213 213 211 211 217 228 237 231 230 230 222 232 238 246 255 267 270 282 268 272 278 293 286
356 332 333 345 353 357 347 351 2 360 2 15 7 354 350 343 347 344 341 241 221 210 217 220 227 219 256 259 258 245 230 227 234 238 249 250 255 260 268 267 276 289 281
349 338 344 351 349 346 350 10 360 349 4 10 2 354 340 340 353 354 358 360 247 222 217 227 276 297 261 287 288 283 265 258 245 239 247 250 254 250 250 259 261 263 265
351 344 348 349 340 344 360 360 343 343 341 341 352 345 337 340 350 2 10 7 344 327 283 250 260 290 292 305 301 291 281 273 271 263 257 264 266 261 243 252 259 269 285
344 338 337 336 337 341 340 330 330 330 331 329 349 354 348 341 354 9 15 6 358 344 334 321 296 290 300 309 290 284 293 295 298 287 283 284 288 279 263 253 269 270 279
319 317 324 334 327 318 316 322 328 319 321 340 2 0 349 342 350 5 13 10 356 342 340 332 306 306 307 303 274 266 278 291 304 306 300 304 304 301 286 245 225 240 262
328 329 336 336 323 325 336 341 344 346 354 353 352 349 343 339 338 350 358 359 340 327 324 325 321 319 305 295 282 267 277 292 286 285 290 301 314 319 311 301 269 241 239
346 343 339 337 338 354 358 358 5 6 7 349 344 341 341 338 338 342 344 342 342 313 307 312 313 317 313 302 290 290 297 302 288 285 287 290 290 291 291 284 272 263 263
344 337 336 339 351 0 354 355 11 14 0 327 320 317 323 330 329 335 334 335 333 322 304 306 309 310 313 312 307 304 306 291 272 267 270 273 278 281 287 289 286 278 289
319 323 331 335 346 357 345 333 290 257 273 277 286 295 306 313 316 321 321 323 325 323 318 311 311 313 316 316 319 315 308 296 282 272 276 282 293 292 286 283 279 286 281
314 319 325 326 324 326 323 296 280 254 243 243 246 253 269 284 300 314 318 309 308 301 321 318 322 325 326 326 326 317 311 307 294 296 291 286 280 275 277 277 270 273 256
300 309 304 301 303 304 311 317 314 305 297 291 285 281 274 286 303 309 312 317 326 331 334 294 300 304 298 300 301 298 291 285 284 282 281 279 275 270 272 269 256 248 258
244 266 277 277 273 276 281 291 310 323 321 317 312 309 307 306 308 310 317 320 332 352 351 299 292 293 295 296 292 287 285 285 283 276 274 276 279 276 270 266 257 254 260
250 252 251 253 253 252 252 255 255 275 300 305 313 312 315 311 311 316 325 337 331 342 302 279 283 287 289 293 295 296 292 291 286 281 277 273 270 273 270 265 259 253 260
250 252 249 251 252 252 255 253 247 249 263 283 306 309 316 313 314 319 338 337 277 281 283 277 276 281 285 286 287 289 292 290 284 275 271 268 264 263 268 266 260 256 252
250 256 252 245 249 251 250 249 253 252 257 265 272 284 311 338 320 314 317 282 266 266 271 273 274 273 276 278 282 285 286 284 285 279 272 267 261 256 260 263 258 253 249
246 251 245 239 239 241 242 243 247 249 254 260 264 272 280 273 272 278 279 272 263 263 266 268 269 271 271 273 274 276 278 280 279 276 273 272 269 263 259 260 258 252 251
232 235 234 235 241 244 245 244 243 247 253 262 276 284 288 282 266 268 269 269 266 262 261 262 265 263 261 262 266 269 271 273 276 278 278 273 267 265 262 259 258 252 244
226 231 239 241 239 244 251 248 243 245 251 256 263 271 269 259 258 260 263 266 266 267 264 260 265 269 266 262 259 259 263 266 268 269 272 272 268 264 262 259 255 252 246
233 231 236 240 238 237 243 248 247 247 249 254 257 258 259 259 260 262 264 266 266 266 263 260 260 264 269 271 267 262 263 268 269 263 260 263 265 263 261 262 258 251 248
236 236 237 239 240 240 243 247 249 250 250 252 255 258 260 260 261 263 263 262 264 265 265 262 263 265 267 268 269 268 269 273 271 263 257 254 256 256 255 256 256 254 248
240 241 242 242 241 239 240 245 249 249 251 252 252 253 255 257 259 261 262 261 263 265 267 265 262 263 267 269 270 273 274 274 270 262 254 250 250 253 251 252 252 253 252